Regional Weather Roundup
Issued by NWS Sioux Falls, SD

Home | Current Version | Previous Version | Graphics & Text | Print | Product List | Glossary On
Versions: 1 2 3 4 5 6 7 8 9 10 11 12 13 14 15 16 17 18 19 20 21 22 23 24 25 26 27 28 29 30 31 32 33 34 35 36 37 38 39 40 41 42 43 44 45 46 47 48 49 50
000
ASUS43 KFSD 280410
RWRFSD

WEATHER ROUNDUP FOR SE SOUTH DAKOTA/SW MINNESOTA/NW IOWA
NATIONAL WEATHER SERVICE SIOUX FALLS SD
1100 PM CDT MON APR 27 2015

NOTE: "FAIR" INDICATES FEW OR NO CLOUDS BELOW 12,000 FEET WITH NO
SIGNIFICANT WEATHER AND OR OBSTRUCTIONS TO VISIBILITY.


SDZ038>040-050-052>070-280500-
SOUTHEAST SOUTH DAKOTA

CITY           SKY/WX    TMP DP  RH WIND       PRES   REMARKS
BROOKINGS      MOCLDY    52  28  40 CALM      30.19S
CHAMBERLAIN    MOCLDY    50  42  73 N13       30.26R
HURON          PTCLDY    51  41  68 NW12      30.22R
MADISON        FAIR      50  23  34 CALM      30.19S
MITCHELL       PTCLDY    56  43  61 NW15      30.21R
SIOUX FALLS    MOCLDY    49  30  48 CALM      30.18R
WINNER         FAIR      48  39  71 NW8       30.30R
YANKTON        PTCLDY    50  30  46 NW7       30.18S
$$

MNZ071-072-080-081-089-090-097-098-280500-
SOUTHWEST MINNESOTA

CITY           SKY/WX    TMP DP  RH WIND       PRES   REMARKS
FAIRMONT       PTCLDY    50  27  40 CALM      30.16S
JACKSON        CLEAR     50  19  29 NW3       30.18S
LUVERNE        PTCLDY    50  28  43 CALM      30.19R
MARSHALL       PTCLDY    48  21  34 W5        30.17S
MONTEVIDEO     CLEAR     54  19  26 CALM      30.17F
REDWOOD FALLS  PTCLDY    56  23  27 CALM      30.16S
TRACY          CLEAR     52  24  33 W3        30.18S
WORTHINGTON    PTCLDY    46  21  36 NW3       30.19R
$$

IAZ001>003-012>014-020>022-031-032-NEZ013-014-SDZ071-280500-
NORTHWEST IOWA

CITY           SKY/WX    TMP DP  RH WIND       PRES   REMARKS
CHEROKEE       CLEAR     45  33  62 CALM      30.18R
DENISON        PTCLDY    50  34  53 CALM      30.16S
ESTHERVILLE    PTCLDY    42  23  46 NW3       30.17R
LE MARS        PTCLDY    46  34  61 CALM      30.19R
ORANGE CITY    PTCLDY    55  27  33 CALM      30.18S
SHELDON        CLEAR     45  25  45 CALM      30.17S
SIOUX CITY     PTCLDY    48  26  42 W3        30.18R
SPENCER        FAIR      45  33  63 CALM      30.17S
STORM LAKE     CLEAR     57  32  38 NE3       30.18S
$$

ABBREVIATIONS USED IN REMARKS
   TC - TEMPERATURE IN CELSIUS
  WCI - WIND CHILL INDEX
   HX - HEAT INDEX
  VSB - VISIBILITY



USA.gov is the U.S. government's official web portal to all federal, state and local government web resources and services.